TimeEDT,TemperatureF,Dew PointF,Humidity,Sea Level PressureIn,VisibilityMPH,Wind Direction,Wind SpeedMPH,Gust SpeedMPH,PrecipitationIn,Events,Conditions,WindDirDegrees,DateUTC
12:13 AM,58.1,58.1,100,30.06,10.0,Calm,Calm,-,N/A,,Overcast,0,2012-10-04 04:13:00
12:34 AM,58.1,58.1,100,30.06,10.0,SSE,3.5,-,N/A,,Overcast,150,2012-10-04 04:34:00
12:53 AM,58.3,58.3,100,30.05,10.0,SE,4.6,-,N/A,,Overcast,140,2012-10-04 04:53:00
1:13 AM,57.6,57.6,100,30.05,10.0,South,3.5,-,N/A,,Mostly Cloudy,170,2012-10-04 05:13:00
1:34 AM,57.2,57.2,100,30.05,10.0,SSE,4.6,-,N/A,,Scattered Clouds,150,2012-10-04 05:34:00
1:53 AM,57.7,57.7,100,30.06,10.0,South,4.6,-,N/A,,Mostly Cloudy,180,2012-10-04 05:53:00
2:14 AM,58.6,58.6,100,30.06,10.0,South,5.8,-,N/A,,Overcast,190,2012-10-04 06:14:00
2:33 AM,59.2,58.6,98,30.06,10.0,South,4.6,-,N/A,,Overcast,190,2012-10-04 06:33:00
2:53 AM,59.7,58.5,96,30.05,10.0,South,6.9,-,N/A,,Overcast,190,2012-10-04 06:53:00
3:14 AM,59.4,58.3,96,30.05,10.0,South,6.9,-,N/A,,Overcast,190,2012-10-04 07:14:00
3:34 AM,57.9,57.6,99,30.05,10.0,South,4.6,-,N/A,,Overcast,190,2012-10-04 07:34:00
3:53 AM,56.8,56.8,100,30.04,10.0,South,3.5,-,N/A,,Overcast,180,2012-10-04 07:53:00
4:14 AM,57.2,57.2,100,30.04,10.0,South,3.5,-,N/A,,Overcast,170,2012-10-04 08:14:00
4:33 AM,56.8,56.8,100,30.04,10.0,South,5.8,-,N/A,,Overcast,170,2012-10-04 08:33:00
4:53 AM,56.3,56.3,100,30.03,10.0,South,5.8,-,N/A,,Mostly Cloudy,180,2012-10-04 08:53:00
5:14 AM,54.9,54.9,100,30.04,10.0,South,5.8,-,N/A,,Mostly Cloudy,190,2012-10-04 09:14:00
5:33 AM,54.9,54.9,100,30.04,10.0,South,5.8,-,N/A,,Scattered Clouds,180,2012-10-04 09:33:00
5:53 AM,54.0,54.0,100,30.05,10.0,South,5.8,-,N/A,,Scattered Clouds,190,2012-10-04 09:53:00
6:14 AM,54.5,54.5,100,30.04,10.0,South,6.9,-,N/A,,Clear,180,2012-10-04 10:14:00
6:33 AM,54.7,54.7,100,30.04,10.0,SSW,6.9,-,N/A,,Clear,200,2012-10-04 10:33:00
6:53 AM,55.8,55.8,100,30.05,10.0,SSW,5.8,-,N/A,,Mostly Cloudy,210,2012-10-04 10:53:00
7:14 AM,55.6,55.6,100,30.04,10.0,SSW,4.6,-,N/A,,Mostly Cloudy,210,2012-10-04 11:14:00
7:33 AM,54.1,54.1,100,30.05,10.0,SSW,4.6,-,N/A,,Scattered Clouds,200,2012-10-04 11:33:00
7:53 AM,54.5,54.5,100,30.05,10.0,SSW,5.8,-,N/A,,Clear,210,2012-10-04 11:53:00
8:14 AM,55.0,55.0,100,30.05,10.0,SSW,5.8,-,N/A,,Clear,200,2012-10-04 12:14:00
8:38 AM,57.2,56.5,97,30.06,10.0,SSW,5.8,-,N/A,,Clear,200,2012-10-04 12:38:00
8:53 AM,58.1,56.7,95,30.06,10.0,SSW,5.8,-,N/A,,Clear,210,2012-10-04 12:53:00
9:14 AM,59.9,57.2,91,30.06,10.0,SW,5.8,-,N/A,,Clear,220,2012-10-04 13:14:00
9:33 AM,61.0,57.2,87,30.05,10.0,SW,6.9,-,N/A,,Clear,220,2012-10-04 13:33:00
9:53 AM,61.7,57.6,86,30.05,10.0,SW,6.9,-,N/A,,Clear,230,2012-10-04 13:53:00
10:14 AM,62.8,58.6,86,30.05,10.0,SW,8.1,-,N/A,,Mostly Cloudy,230,2012-10-04 14:14:00
10:33 AM,62.8,58.3,85,30.06,10.0,SW,9.2,-,N/A,,Overcast,230,2012-10-04 14:33:00
10:53 AM,64.8,56.3,74,30.05,10.0,WSW,11.5,-,N/A,,Mostly Cloudy,250,2012-10-04 14:53:00
11:14 AM,66.0,55.2,68,30.06,10.0,WSW,11.5,17.3,N/A,,Scattered Clouds,240,2012-10-04 15:14:00
11:33 AM,65.3,55.4,70,30.06,10.0,SW,9.2,16.1,N/A,,Mostly Cloudy,230,2012-10-04 15:33:00
11:53 AM,64.8,54.3,69,30.06,10.0,WSW,10.4,18.4,N/A,,Overcast,250,2012-10-04 15:53:00
12:14 PM,67.6,54.7,63,30.06,10.0,WSW,12.7,-,N/A,,Overcast,240,2012-10-04 16:14:00
12:33 PM,66.4,56.1,69,30.06,10.0,SSW,10.4,18.4,N/A,,Overcast,210,2012-10-04 16:33:00
12:53 PM,65.8,55.2,69,30.06,10.0,WSW,12.7,18.4,N/A,,Overcast,250,2012-10-04 16:53:00
1:14 PM,66.4,54.3,65,30.06,10.0,WSW,12.7,18.4,N/A,,Overcast,240,2012-10-04 17:14:00
1:33 PM,68.9,54.1,59,30.05,10.0,WSW,13.8,18.4,N/A,,Mostly Cloudy,240,2012-10-04 17:33:00
1:53 PM,70.3,53.6,55,30.04,10.0,SW,10.4,20.7,N/A,,Scattered Clouds,220,2012-10-04 17:53:00
2:33 PM,73.8,53.4,49,30.02,10.0,SW,10.4,-,N/A,,Clear,220,2012-10-04 18:33:00
2:54 PM,74.1,51.8,46,30.02,10.0,SW,15.0,19.6,N/A,,Scattered Clouds,230,2012-10-04 18:54:00
3:13 PM,74.3,51.3,44,30.02,10.0,WSW,9.2,21.9,N/A,,Mostly Cloudy,240,2012-10-04 19:13:00
3:33 PM,75.2,50.2,41,30.01,10.0,WSW,9.2,21.9,N/A,,Mostly Cloudy,250,2012-10-04 19:33:00
3:54 PM,74.5,48.7,40,30.01,10.0,WSW,15.0,24.2,N/A,,Scattered Clouds,250,2012-10-04 19:54:00
4:13 PM,75.7,48.7,38,30.00,10.0,SW,10.4,17.3,N/A,,Scattered Clouds,220,2012-10-04 20:13:00
4:33 PM,76.6,47.8,36,30.00,10.0,SW,12.7,17.3,N/A,,Scattered Clouds,220,2012-10-04 20:33:00
4:54 PM,76.3,47.1,36,30.00,10.0,SW,15.0,21.9,N/A,,Clear,230,2012-10-04 20:54:00
5:13 PM,76.1,47.1,36,30.00,10.0,SW,16.1,23.0,N/A,,Scattered Clouds,230,2012-10-04 21:13:00
5:33 PM,75.2,47.3,37,30.00,10.0,SW,13.8,21.9,N/A,,Scattered Clouds,230,2012-10-04 21:33:00
6:13 PM,73.8,50.0,43,30.01,10.0,SSW,10.4,17.3,N/A,,Scattered Clouds,210,2012-10-04 22:13:00
6:54 PM,70.3,50.4,49,30.00,10.0,SSW,6.9,-,N/A,,Scattered Clouds,200,2012-10-04 22:54:00
7:13 PM,67.1,51.3,57,30.00,10.0,South,5.8,-,N/A,,Clear,190,2012-10-04 23:13:00
7:33 PM,66.2,51.4,59,30.00,10.0,South,5.8,-,N/A,,Scattered Clouds,180,2012-10-04 23:33:00
7:54 PM,64.6,51.4,62,29.99,10.0,South,4.6,-,N/A,,Scattered Clouds,180,2012-10-04 23:54:00
8:13 PM,64.6,51.6,63,29.99,10.0,South,4.6,-,N/A,,Clear,170,2012-10-05 00:13:00
8:33 PM,65.8,51.8,60,29.99,10.0,SSE,3.5,-,N/A,,Mostly Cloudy,160,2012-10-05 00:33:00
8:54 PM,65.5,51.4,60,29.99,10.0,SSE,4.6,-,N/A,,Mostly Cloudy,160,2012-10-05 00:54:00
9:13 PM,65.7,52.0,61,29.99,10.0,South,3.5,-,N/A,,Overcast,170,2012-10-05 01:13:00
9:33 PM,66.2,52.5,61,29.98,10.0,South,5.8,-,N/A,,Overcast,190,2012-10-05 01:33:00
9:54 PM,66.4,53.2,63,29.98,10.0,South,6.9,-,N/A,,Overcast,190,2012-10-05 01:54:00
10:13 PM,66.4,52.7,61,29.98,10.0,South,5.8,-,N/A,,Overcast,190,2012-10-05 02:13:00
10:33 PM,67.1,52.2,59,29.97,10.0,South,5.8,-,N/A,,Overcast,180,2012-10-05 02:33:00
10:54 PM,68.4,51.8,55,29.98,10.0,SW,5.8,-,N/A,,Overcast,230,2012-10-05 02:54:00
11:13 PM,68.5,51.8,55,30.00,10.0,WSW,9.2,-,N/A,,Overcast,240,2012-10-05 03:13:00
11:33 PM,65.8,56.1,71,30.00,10.0,West,13.8,17.3,N/A,Rain,Light Rain,260,2012-10-05 03:33:00
11:53 PM,62.4,62.1,99,30.00,10.0,West,5.8,-,0.03,Rain,Light Rain,260,2012-10-05 03:53:00